Showing default

HORIZONS 3E, 43633

Orbit data source: Space-Track

HORIZONS 3E, 43633 is a payload satellite owned by Horizons (US) in GEO that was launched on Tue, 25 Sep 2018 UTC via an ARIANE 5ECA launch vehicle from the French Guiana (FRGUI). Payload-class satellites include a variety of spacecraft equipped with specific instruments for various scientific and technological missions. These include communications satellites like Starlink; space stations such as the ISS; scientific satellites like the Hubble; Earth observation satellites from companies like Planet Labs, Umbra, and HawkEye 360; GPS; miniature CubeSats for education and research; and military/defense satellites.

Not visible in the next 10 days
Identifier
43633, 2018-074B
Orbit
GEO
Country
Flag of UnknownUnknown / ITSO
Related business
Manufacturer
Boeing/ES
Mission
Operational Commercial Communications
Bus & Motor
BSS-702MP, R-4D?
Mass
6,441 kg wet, ~3,000 kg dry
Launch date (UTC)
2018-09-25 (7 years ago)
Launch vehicle
ARIANE 5ECA
Launch site
French Guiana (FRGUI)
Object type
Payload
Rocket body
Debris
Shape & HBR
Box + 2 Pan, 17.5 m
Radar Cross Section
56.564 m², Large (>1 m²)

Expand to show TLE details & history
Last TLE update: 19 hours ago

TLE from 19 hours ago
0 HORIZONS 3E
1 43633U 18074B   25349.23463874 -.00000010  00000-0  00000-0 0  9991
2 43633   0.0461 189.5477 0000918  95.4301  52.6199  1.00269929 26494
Epoch: 2025-12-15T05:37Z
TLE epoch observation values (Epoch: 2025-12-15T05:37:52.787Z)
Latitude
0.02767°
Longitude
168.98928°
Altitude
35,784.257 km
Speed
3.075 km/s
True Right ascension
22h 30m 22s
True Declination
0° 01' 39"
Sunlit
Object was in daylight at epoch
Visualization orbit readout
Latitude
Unknown
Longitude
Unknown
Altitude
Unknown
Speed
Unknown
Apparent Right ascension
Unknown
Apparent Declination
Unknown
Sunlit
N/A
Visualization observer readout
Local Sidereal Time
23:22:50
Azimuth
Unknown
Elevation
Unknown
Doppler factor
Unknown
Orbital elements
Apogee altitude
35,792.057 km
Perigee altitude
35,784.315 km
Semi-major axis
42,166.323 km
Eccentricity
0.00009
Inclination
0.0461°
RAAN
189.5477°
Arg. of periapsis
95.4301°
True anomaly
52.62826°
Mean anomaly
52.6199°
Eccentric anomaly
52.62408°
Mean motion
0.25067 °/min
Orbital period
1,436.18 mins
BSTAR
0
Loading maneuver chart data...
Computing Atmospheric mass density...
Loading historical data...
Loading historical data...
Loading historical data...
Loading historical data...
Loading historical data...
Loading historical data...
Loading historical data...
Other satellites on launch #74 in the year 2018 (2018-09-25 UTC)

Documentation

Showing up to 5 results
|